[[{"header":{"parameterUnit":"m.s-1","parameterCategory":1,"la1":30.2991,"la2":30.254,"lo1":-89.0895,"lo2":-89.0444,"dy":0.0017,"dx":0.0017,"nx":28,"ny":28,"refTime":"2024-03-14T03:00:00:Z","depth":0,"parameterNumber":2,"parameterNumberName":"U-component_of_WINDS"},"data":[0,0,0,0,0,0,0,0,0,0,0,0,0,0,0,0,0,0,0,0,0,0,0,0,0,0,0,0,0,0,0,0,0,0,0,0,0,0,0,0,0,0,0,0,0,0,0,0,0,0,0,0,0,0,0,0,0,0,-0.7729,-0.7729,0,-0.7729,-0.7729,-0.7729,-0.7733,-0.7733,-0.7733,-0.7733,-0.7733,-0.7733,-0.7733,0,0,0,0,0,0,0,0,0,0,0,0,0,-0.7733,-0.7732,-0.7729,-0.7729,-0.7729,-0.7729,-0.7729,-0.7729,-0.7733,-0.7733,-0.7733,-0.7733,-0.7733,-0.7733,-0.7733,0,0,0,0,0,0,0,0,0,0,0,0,0,-0.7732,-0.7732,-0.7729,-0.7731,-0.7731,-0.7729,-0.7729,-0.7729,-0.7732,-0.7733,-0.7733,-0.7733,-0.7733,-0.7733,-0.7733,-0.7729,0,0,-0.7732,-0.7732,0,0,0,0,0,0,0,0,-0.7732,-0.7731,-0.773,-0.7731,-0.7731,-0.7731,-0.773,-0.7729,-0.7732,-0.7732,-0.7733,-0.7733,-0.7732,-0.7732,-0.7732,-0.7729,-0.7729,-0.7732,-0.7732,-0.7732,-0.7732,0,0,0,0,0,0,0,-0.7732,-0.7731,-0.7729,-0.773,-0.7731,-0.7732,-0.7732,-0.773,-0.7731,-0.7732,-0.7732,-0.7732,-0.7732,-0.7732,-0.7732,-0.7729,-0.7732,-0.7732,-0.7732,-0.7732,-0.7723,-0.7723,0,0,0,0,0,0,-0.7731,-0.7731,-0.7729,-0.7729,-0.7732,-0.7731,-0.7731,-0.7731,-0.7731,-0.7731,-0.7732,-0.7732,-0.7732,-0.7732,-0.7732,-0.7727,-0.7732,-0.7732,-0.7732,-0.7723,-0.7723,-0.7722,0,0,0,0,0,0,-0.7732,-0.7731,-0.7729,-0.773,-0.773,-0.7731,-0.773,-0.7731,-0.773,-0.7731,-0.7732,-0.7731,-0.7732,-0.7732,-0.773,-0.7727,-0.7732,-0.7732,-0.7723,-0.7723,-0.7723,-0.7718,0,0,0,0,0,0,-0.7732,-0.7731,-0.773,-0.773,-0.773,-0.7727,-0.773,-0.773,-0.773,-0.773,-0.7731,-0.7731,-0.7732,-0.773,-0.7729,-0.7727,-0.7732,-0.7723,-0.7723,-0.7723,-0.7718,-0.7717,-0.7717,0,0,0,0,0,-0.7732,-0.7728,-0.773,-0.7729,-0.7728,-0.7726,-0.7726,-0.7728,-0.773,-0.7728,-0.7729,-0.7731,-0.7728,-0.7729,-0.7729,-0.7727,-0.7723,-0.7723,-0.7723,-0.7718,-0.7717,-0.7717,0,0,0,0,0,0,-0.7728,-0.7729,-0.773,-0.7727,-0.7726,-0.7727,-0.7725,-0.7727,-0.7726,-0.7726,-0.7728,-0.7729,-0.7726,-0.7726,-0.7728,-0.7723,-0.7726,-0.7725,-0.7723,-0.7722,-0.7721,-0.7721,-0.7732,0,0,0,0,0,-0.7727,-0.7725,-0.7726,-0.7723,-0.7723,-0.7724,-0.7723,-0.7724,-0.7724,-0.7724,-0.7725,-0.7725,-0.7724,-0.7723,-0.7722,-0.7718,-0.7718,-0.7716,-0.7716,-0.7715,-0.7714,-0.7712,-0.7711,-0.7721,-0.7721,-0.7721,0,0,-0.7724,-0.7724,-0.7723,-0.7722,-0.7722,-0.772,-0.7724,-0.7722,-0.7721,-0.7724,-0.7722,-0.7722,-0.7722,-0.7719,-0.7717,-0.7719,-0.7712,-0.7715,-0.7714,-0.7714,-0.7712,-0.7711,-0.771,-0.7721,-0.7721,-0.7721,0,0,-0.7718,-0.7719,-0.7716,-0.7716,-0.7715,-0.7716,-0.7716,-0.7716,-0.7716,-0.7714,-0.7716,-0.7715,-0.7713,-0.7713,-0.7712,-0.7706,-0.7708,-0.7706,-0.7702,-0.77,-0.7699,-0.7699,-0.7696,-0.7695,-0.7706,-0.7706,-0.7706,0,-0.7715,-0.7713,-0.7714,-0.7712,-0.7712,-0.7714,-0.7712,-0.7711,-0.7711,-0.771,-0.7712,-0.771,-0.771,-0.7707,-0.7705,-0.7705,-0.7704,-0.7706,-0.7699,-0.7699,-0.7698,-0.7695,-0.7695,-0.7705,-0.7705,-0.7705,-0.7706,0,-0.7708,-0.7707,-0.7705,-0.7704,-0.7703,-0.7701,-0.7702,-0.7701,-0.7702,-0.7703,-0.77,-0.7701,-0.77,-0.7699,-0.77,-0.7696,-0.7697,-0.7699,-0.7702,-0.7697,-0.7694,-0.7693,-0.7705,-0.7705,-0.7705,-0.7705,0,0,-0.77,-0.77,-0.7699,-0.7699,-0.7699,-0.7697,-0.7695,-0.7694,-0.7693,-0.7693,-0.7691,-0.7689,-0.7691,-0.769,-0.7692,-0.769,-0.7685,-0.7692,-0.7692,-0.769,-0.7679,-0.7677,-0.7676,-0.7686,-0.7686,-0.7686,-0.7679,0,-0.7694,-0.769,-0.7691,-0.7687,-0.7685,-0.7688,-0.7686,-0.7686,-0.7686,-0.7685,-0.7686,-0.7684,-0.7687,-0.7687,-0.7685,-0.7686,-0.7682,-0.7686,-0.7684,-0.7684,-0.7683,-0.7675,-0.7673,-0.7666,-0.7678,-0.7678,-0.7678,0,-0.7687,-0.7686,-0.7681,-0.7681,-0.768,-0.7678,-0.7677,-0.7676,-0.7676,-0.7676,-0.7676,-0.7678,-0.7675,-0.7679,-0.7675,-0.7678,-0.7677,-0.7677,-0.7677,-0.7677,-0.768,-0.7674,-0.7664,-0.7663,-0.7677,-0.7677,-0.7677,0,-0.768,-0.7678,-0.7675,-0.7674,-0.7674,-0.7673,-0.7673,-0.7673,-0.7672,-0.7671,-0.7671,-0.767,-0.7669,-0.7668,-0.7669,-0.7672,-0.7666,-0.7669,-0.7666,-0.7666,-0.7664,-0.7664,-0.7654,-0.7665,-0.7665,-0.7665,-0.7665,0,-0.7673,-0.767,-0.7672,-0.767,-0.7667,-0.7668,-0.7665,-0.7665,-0.7665,-0.7663,-0.7666,-0.7664,-0.7666,-0.7665,-0.7666,-0.7663,-0.7663,-0.7663,-0.7663,-0.7662,-0.7662,-0.7661,-0.7662,-0.7664,-0.7664,-0.7665,-0.7665,0,-0.7665,-0.7667,-0.7663,-0.7663,-0.7663,-0.7661,-0.7661,-0.7659,-0.766,-0.7657,-0.7657,-0.7658,-0.7656,-0.7658,-0.7656,-0.7657,-0.7653,-0.7654,-0.7653,-0.7653,-0.7649,-0.7649,-0.7638,-0.7636,-0.7648,-0.7648,-0.7648,0,-0.7661,-0.7658,-0.7658,-0.7657,-0.7657,-0.7655,-0.7654,-0.7655,-0.7654,-0.7654,-0.7652,-0.765,-0.7649,-0.7646,-0.7647,-0.7646,-0.7646,-0.7643,-0.7646,-0.7645,-0.7646,-0.7646,-0.7645,-0.7642,-0.7642,-0.7641,-0.7641,0,-0.7652,-0.7652,-0.7651,-0.7649,-0.7648,-0.7647,-0.7646,-0.7645,-0.7647,-0.7645,-0.7643,-0.7642,-0.764,-0.7639,-0.7638,-0.7638,-0.764,-0.764,-0.7639,-0.7638,-0.7637,-0.7637,-0.765,-0.764,-0.764,-0.7641,-0.7641,-0.7641,-0.7645,-0.7643,-0.7642,-0.764,-0.764,-0.7639,-0.7637,-0.7637,-0.7636,-0.7634,-0.7635,-0.7633,-0.7633,-0.7631,-0.7631,-0.7629,-0.7631,-0.763,-0.7629,-0.7629,-0.7628,-0.7638,-0.7629,-0.7629,-0.7629,-0.7629,-0.7629,0,-0.7636,-0.7635,-0.7633,-0.7632,-0.763,-0.7632,-0.7632,-0.763,-0.7628,-0.7627,-0.7626,-0.7624,-0.7622,-0.7623,-0.7621,-0.7619,-0.762,-0.7619,-0.7619,-0.7619,-0.7627,-0.7628,-0.7618,-0.7618,-0.7618,-0.7618,-0.7618,-0.7618,-0.763,-0.7627,-0.7627,-0.7623,-0.7623,-0.7621,-0.762,-0.7619,-0.7618,-0.7616,-0.7614,-0.7614,-0.7614,-0.7613,-0.7611,-0.7612,-0.7611,-0.7609,-0.7609,-0.7617,-0.7618,-0.7619,-0.762,-0.7609,-0.7609,-0.7601,-0.7601,-0.7601]},{"header":{"parameterUnit":"m.s-1","parameterCategory":1,"la1":30.2991,"la2":30.254,"lo1":-89.0895,"lo2":-89.0444,"dy":0.0017,"dx":0.0017,"nx":28,"ny":28,"refTime":"2024-03-14T03:00:00:Z","depth":0,"parameterNumber":3,"parameterNumberName":"V-component_of_WINDS"},"data":[0,0,0,0,0,0,0,0,0,0,0,0,0,0,0,0,0,0,0,0,0,0,0,0,0,0,0,0,0,0,0,0,0,0,0,0,0,0,0,0,0,0,0,0,0,0,0,0,0,0,0,0,0,0,0,0,0,0,3.0954,3.0954,0,3.0962,3.0962,3.0962,3.0953,3.0952,3.0952,3.0952,3.0959,3.096,3.096,0,0,0,0,0,0,0,0,0,0,0,0,0,3.0929,3.093,3.0954,3.0954,3.0954,3.0962,3.0962,3.0963,3.0953,3.0952,3.0952,3.0952,3.0959,3.096,3.096,0,0,0,0,0,0,0,0,0,0,0,0,0,3.0939,3.093,3.0954,3.095,3.095,3.0962,3.0962,3.0963,3.0953,3.0952,3.0952,3.0951,3.0959,3.096,3.0961,3.0976,0,0,3.0963,3.0963,0,0,0,0,0,0,0,0,3.0938,3.094,3.095,3.095,3.095,3.0956,3.0957,3.0967,3.0953,3.0952,3.0952,3.0951,3.0959,3.0959,3.0962,3.0977,3.0977,3.0963,3.0964,3.0964,3.0964,0,0,0,0,0,0,0,3.0938,3.0939,3.0957,3.0951,3.095,3.0948,3.0949,3.0959,3.0958,3.0952,3.0951,3.0952,3.0958,3.0961,3.0962,3.0977,3.0963,3.0964,3.0964,3.0965,3.1008,3.1009,0,0,0,0,0,0,3.0938,3.0939,3.0957,3.0957,3.0943,3.0949,3.095,3.0955,3.0958,3.0958,3.0953,3.0952,3.096,3.0961,3.0963,3.0983,3.0964,3.0965,3.0965,3.1008,3.1008,3.1009,0,0,0,0,0,0,3.0937,3.0939,3.0956,3.0948,3.095,3.095,3.0955,3.0955,3.0958,3.0959,3.0959,3.0956,3.096,3.0961,3.0974,3.0983,3.0965,3.0966,3.1007,3.1008,3.1009,3.1024,0,0,0,0,0,0,3.0936,3.0939,3.0945,3.0948,3.095,3.0967,3.0956,3.0956,3.096,3.0959,3.0962,3.0962,3.096,3.0973,3.0975,3.0984,3.0966,3.1006,3.1007,3.1009,3.1023,3.1025,3.1028,0,0,0,0,0,3.0936,3.0948,3.0945,3.0947,3.0958,3.0968,3.0969,3.0967,3.096,3.0967,3.0968,3.0962,3.0982,3.0974,3.0976,3.0986,3.1005,3.1007,3.1008,3.1022,3.1025,3.1028,0,0,0,0,0,0,3.0944,3.0948,3.0945,3.0959,3.0963,3.0966,3.0974,3.097,3.0976,3.0975,3.0971,3.0972,3.0986,3.0987,3.0978,3.1003,3.0993,3.0995,3.1002,3.1005,3.1008,3.1007,3.0967,0,0,0,0,0,3.0948,3.0956,3.0959,3.0971,3.0973,3.0973,3.0978,3.0976,3.098,3.0982,3.0983,3.0987,3.0995,3.1,3.1007,3.1023,3.1024,3.1031,3.1033,3.1035,3.1038,3.1049,3.1052,3.1014,3.1014,3.1014,0,0,3.0956,3.0959,3.0964,3.0973,3.0976,3.0985,3.0975,3.0984,3.0991,3.0983,3.0995,3.0997,3.1001,3.1017,3.1023,3.1018,3.1048,3.1037,3.1039,3.104,3.105,3.1054,3.1057,3.1015,3.1015,3.1015,0,0,3.0974,3.0977,3.0988,3.0992,3.0998,3.0998,3.1001,3.1005,3.1006,3.1019,3.1014,3.1022,3.1034,3.1039,3.1042,3.1065,3.1061,3.1068,3.1081,3.1092,3.1095,3.1098,3.1108,3.1111,3.1069,3.1069,3.1069,0,3.0983,3.0996,3.0994,3.1005,3.101,3.1004,3.1016,3.102,3.1027,3.1031,3.1025,3.1043,3.1045,3.1062,3.1068,3.1071,3.1075,3.1067,3.1095,3.1097,3.11,3.1109,3.1113,3.107,3.107,3.107,3.107,0,3.1007,3.1017,3.1025,3.1034,3.104,3.1051,3.1052,3.1058,3.1056,3.1057,3.1072,3.1075,3.1083,3.1087,3.1084,3.1105,3.1102,3.1095,3.1085,3.1104,3.1114,3.1117,3.1072,3.1071,3.1071,3.1071,0,0,3.103,3.104,3.1043,3.1048,3.1055,3.1063,3.1074,3.1084,3.109,3.1096,3.1106,3.1118,3.1114,3.1118,3.1116,3.1125,3.1146,3.1118,3.1118,3.1125,3.1171,3.1177,3.1181,3.1143,3.1144,3.1144,3.1171,0,3.105,3.1072,3.1071,3.1091,3.1101,3.1097,3.1108,3.1113,3.1115,3.1124,3.1126,3.1136,3.1127,3.1131,3.1139,3.1142,3.1156,3.114,3.1154,3.1155,3.1155,3.1185,3.1191,3.1216,3.1175,3.1175,3.1176,0,3.1076,3.1085,3.1106,3.1114,3.1118,3.1127,3.1138,3.1146,3.1153,3.1154,3.116,3.1158,3.1171,3.116,3.1179,3.1168,3.1174,3.1176,3.1177,3.1179,3.1167,3.119,3.1224,3.1228,3.1181,3.118,3.118,0,3.1093,3.111,3.1125,3.1129,3.1138,3.1146,3.115,3.1156,3.1163,3.1172,3.1176,3.1186,3.1191,3.1199,3.12,3.1192,3.122,3.1208,3.1222,3.1222,3.1228,3.1228,3.1265,3.123,3.123,3.123,3.123,0,3.1116,3.113,3.1133,3.1143,3.1159,3.1159,3.1174,3.1178,3.1184,3.1195,3.1192,3.1202,3.1202,3.1212,3.1213,3.123,3.1232,3.1234,3.1234,3.1235,3.1235,3.1239,3.1238,3.1231,3.1231,3.1231,3.123,0,3.1138,3.1141,3.1158,3.1166,3.1168,3.118,3.1187,3.1197,3.1199,3.1213,3.1216,3.122,3.1233,3.1234,3.1248,3.1249,3.127,3.1267,3.1268,3.1268,3.1282,3.1282,3.1325,3.1331,3.129,3.1291,3.1291,0,3.1153,3.1163,3.1174,3.1181,3.1186,3.1198,3.1205,3.1206,3.1214,3.1225,3.1234,3.1246,3.1257,3.1277,3.1282,3.1293,3.1292,3.1306,3.1293,3.1295,3.1294,3.1294,3.1296,3.1309,3.1309,3.131,3.131,0,3.118,3.1181,3.1192,3.1205,3.1214,3.1223,3.1232,3.1238,3.1241,3.125,3.1264,3.1272,3.1288,3.1301,3.1314,3.1318,3.1315,3.1314,3.1318,3.132,3.1321,3.1322,3.1276,3.1313,3.1313,3.1313,3.1312,3.1312,3.1199,3.121,3.1219,3.1232,3.124,3.1249,3.1259,3.1264,3.1276,3.129,3.129,3.1305,3.1315,3.1331,3.1336,3.1349,3.1344,3.135,3.1351,3.1353,3.1356,3.1318,3.1351,3.1351,3.1351,3.1351,3.1351,0,3.1227,3.1234,3.1246,3.126,3.1271,3.1268,3.1279,3.1288,3.1302,3.1311,3.1322,3.1339,3.1353,3.1359,3.1373,3.1382,3.1381,3.1386,3.1385,3.1387,3.1358,3.1354,3.1386,3.1386,3.1386,3.1386,3.1386,3.1386,3.1243,3.1262,3.1265,3.1288,3.1294,3.131,3.1317,3.1326,3.1334,3.1353,3.1365,3.1369,3.1378,3.1393,3.1406,3.1407,3.1413,3.1419,3.142,3.1392,3.1389,3.1385,3.1382,3.1419,3.1419,3.1448,3.1448,3.1449]}]]